Regional Weather Roundup
Issued by NWS Lake Charles, LA

Home | Current Version | Previous Version | Text Only | Print | Product List | Glossary On
Versions: 1 2 3 4 5 6 7 8 9 10 11 12 13 14 15 16 17 18 19 20 21 22 23 24 25 26 27 28 29 30 31 32 33 34 35 36 37 38 39 40 41 42 43 44 45 46 47 48 49 50
812
ASUS44 KLCH 300910
RWRLCH
REGIONAL WEATHER ROUNDUP
NATIONAL WEATHER SERVICE LAKE CHARLES LA
400 AM CDT THU MAR 30 2017

Note: "fair" indicates few or no clouds below 12,000 feet with no
significant weather and/or obstructions to visibility.


ACROSS SOUTHEAST TEXAS

CITY           SKY/WX    TMP DP  RH WIND       PRES   REMARKS
BEAUMONT       CLOUDY    68  67  96 S7        29.80R FOG
BEAUMONT CITY  FAIR     N/A N/A N/A S3        29.80R
ORANGE         FOG       66  66  99 MISG      29.82R VSB 1/4
JASPER         RAIN      65  65 100 W5        29.83R VSB 1/4
$$

ACROSS CENTRAL LOUISIANA

CITY           SKY/WX    TMP DP  RH WIND       PRES   REMARKS
LEESVILLE      CLOUDY   N/A N/A N/A S9        29.79R
FULLERTON      CLOUDY    67  65  93 CALM      29.77S
ALEXANDRIA INT CLOUDY    64  64 100 SE7       29.76F FOG
ESLER FIELD    MOCLDY    65  64  97 S6        29.76F
DERIDDER       CLOUDY    67  65  96 S5        29.81R FOG
OAKDALE        CLOUDY    64  64  97 CALM      29.81R
OPELOUSAS      FAIR      62  61  96 MISG      29.80F
$$

ACROSS SOUTHWEST AND SOUTH CENTRAL LOUISIANA

CITY           SKY/WX    TMP DP  RH WIND       PRES   REMARKS
SULPHUR        SUNNY     70  70 100 S5        29.81R FOG
LAKE CHARLES   MOCLDY    69  68  96 S5        29.80R FOG
CHENNAULT INT  CLOUDY    70  70  99 S5        29.81R FOG
CAMERON PHI    SUNNY     72  70  94 SW6       29.80R
DEQUINCY       FOG       67  66  99 CALM      29.80R VSB 1/4
JENNINGS       FAIR      64  63  96 S7        29.82R
LAFAYETTE      LGT RAIN  67  65  93 SE5       29.84S
NEW IBERIA     LGT RAIN  66  63  90 S10       29.87R
ABBEVILLE      CLOUDY    64  64 100 SW12      29.85R
PATTERSON      CLOUDY    72  70  93 SW3       29.87S THUNDER
SALT POINT       N/A     72  70  93 CALM      29.85R
$$

SELECTED SITES ACROSS THE REGION

CITY           SKY/WX    TMP DP  RH WIND       PRES   REMARKS
HOUSTON BUSH   CLOUDY    64  55  72 NW9       29.85R
HOUSTON HOBBY  MOCLDY    67  54  63 NW9       29.84R
GALVESTON      FOG       72  71  97 SW7       29.83R VSB 1/2
COLLEGE STAT   CLOUDY    59  50  72 NW15      29.89R
CONROE         CLOUDY    61  55  81 NW8       29.85R
HUNTSVILLE     CLOUDY    61  52  72 NW10      29.87R
LUFKIN         MOCLDY    59  56  89 W9        29.82R
SHREVEPORT     PTCLDY    63  59  87 W14       29.76R
MONROE         MOCLDY    66  64  93 SE6       29.73F
NATCHEZ MS     NOT AVBL
BATON ROUGE    RAIN      64  62  93 E8        29.86F FOG
N.O. INTL ARPT CLOUDY    73  69  87 S7        29.87R
SLIDELL        CLOUDY    73  69  87 S12       29.86F
$$

MARINE REPORTS

STATION/POSITION TIME  SKY/WX   TEMP    WIND        PRES    VSBY
                                AIR SEA DIR/SP/G
                 (UTC)          (F)     (DEG/KT/KT) (MB)    (MI)
BUOY 30 S HIGH I 0750            71 71  230/ 10/ 14 1009.1
WVE H/P(F/S)=  5/ 8

SEA RIM ST PARK  0800            71     210/  7/  8 1009.2R
PORT ARTHUR      0848               74  210/  5/  7 1009.5R
SABINE PASS N    0848            71 76  220/  4/  6 1010.7R
TEXAS POINT      NOT AVBL
CALCASIEU PASS   0848            73 75  230/ 10/ 11   N/A
LK CHARLES BEACH 0848            70 71              1009.4R
MARSH ISLAND     NOT AVBL
FRESH WATER LOCK 0848            66 76  110/  6/  9 1009.0F
AMERADA PASS     0848            73 65  180/  3/  6 1011.1R
$$




USA.gov is the U.S. government's official web portal to all federal, state and local government web resources and services.